SCP
0 0 0 0 0 0 0 0 0 0 0 0 0 0 0 0 0 0 0 0 0 0 0 0 0 0 0 0 0 0 0 0 0 0 0 0 0 0 0 0 0 0 0 1 0
0 0 0 0 0 0 0 0 0 0 0 0 0 0 0 0 0 0 0 0 0 0 0 0 0 0 0 0 0 0 0 0 0 0 0 0 0 0 0 0 0 0 0 0 0
0 0 0 0 0 0 0 0 0 0 0 0 0 0 0 -0 0 0 0 0 0 0 0 0 0 0 0 0 0 0 0 0 0 0 0 0 0 0 0 0 0 0 0 0 1
0 0 0 0 0 0 0 0 0 0 0 0 0 0 -0 0 0 0 0 0 0 0 0 0 0 0 0 0 0 0 0 0 0 0 0 0 0 0 0 -0 0 0 0 0 0
0 0 0 0 0 0 0 0 0 0 0 0 0 0 0 0 0 0 0 0 0 0 0 0 0 0 0 0 0 0 0 0 0 0 0 0 0 0 0 0 0 0 0 0 0
0 0 0 0 0 0 0 0 0 0 0 0 0 0 0 0 0 0 0 0 0 0 0 0 0 0 0 0 0 0 0 0 0 0 0 0 0 0 0 0 0 0 0 0 0
0 0 0 0 0 0 0 0 0 0 0 0 0 0 0 0 0 0 0 0 0 0 0 0 0 0 0 0 0 0 0 0 0 0 0 0 0 0 0 0 0 0 0 0 -0
0 0 0 0 0 0 0 0 0 0 0 0 0 0 0 0 0 0 0 0 0 0 0 0 0 0 0 0 0 0 0 0 0 0 0 0 0 0 0 0 0 0 0 0 -0
0 0 0 0 0 0 0 0 0 0 0 0 0 0 0 0 0 0 0 0 0 0 0 0 0 0 0 0 0 0 0 0 0 0 0 0 0 0 0 0 0 0 0 0 0
0 0 0 0 0 0 0 0 0 0 0 0 0 0 0 0 0 0 0 0 0 0 0 0 0 0 0 0 0 0 0 0 0 0 0 0 0 0 0 0 0 0 0 0 0
0 0 0 0 0 0 0 0 0 0 0 0 0 0 0 0 0 0 0 0 0 0 0 0 0 0 0 0 0 0 0 0 0 0 0 0 0 0 0 0 0 0 0 0 0
0 0 0 0 0 0 0 0 0 0 0 0 0 0 0 0 0 0 0 0 0 0 0 0 0 0 0 0 0 0 0 0 0 0 0 0 0 0 0 0 0 0 0 0 0
0 0 0 0 0 0 0 0 0 0 0 0 0 0 0 0 0 0 0 0 0 0 0 0 0 0 0 0 0 0 0 0 0 0 0 0 0 0 0 0 0 0 0 0 0
0 0 0 0 0 0 0 0 0 0 0 0 0 0 0 0 0 0 0 0 0 0 0 0 0 0 0 0 0 0 0 0 0 0 0 0 0 0 0 0 -0 -0 0 0 0
0 0 0 0 0 0 0 0 0 0 0 0 0 0 0 0 0 0 0 0 0 0 0 0 0 0 0 0 0 0 0 0 0 0 0 0 0 0 0 0 -0 0 0 0 0
0 0 0 0 0 0 0 0 0 0 0 0 0 0 0 0 0 0 0 0 0 0 0 0 0 0 0 0 0 0 0 0 0 0 0 0 0 0 0 0 -0 0 0 0 0
0 0 0 0 0 0 0 0 0 0 0 0 0 0 0 0 0 0 0 0 0 0 0 0 0 0 0 0 0 0 0 0 0 0 0 0 0 0 0 -0 0 0 0 0 0
0 0 0 0 0 0 0 0 0 0 0 0 0 0 0 0 0 0 0 0 0 0 0 0 0 0 0 0 0 0 0 0 0 0 0 0 0 -0 -0 -0 0 0 0 0 0
0 0 0 0 0 0 0 0 0 0 0 0 0 0 0 0 0 0 0 0 0 0 0 0 0 0 0 0 0 0 0 0 0 0 0 0 0 -0 -0 -0 -0 -0 0 0 0
0 0 0 0 0 0 0 0 0 0 0 0 0 0 0 0 0 0 0 0 0 0 0 0 0 0 0 0 0 0 0 0 0 0 0 0 0 0 -0 -0 -0 -0 -0 0 0
0 0 0 0 0 0 0 0 0 0 0 0 0 0 0 0 0 0 0 0 0 0 0 0 0 0 0 0 0 0 0 0 0 0 0 0 0 0 0 0 -0 0 -0 -0 -0
0 0 0 0 0 0 0 0 0 0 0 0 0 0 0 0 0 0 0 0 0 0 0 0 0 0 0 0 0 0 0 0 0 0 0 0 0 0 0 0 0 0 -0 -0 -0
0 0 0 0 0 0 0 0 0 0 0 0 0 0 0 0 0 0 0 0 0 0 0 0 0 0 0 0 0 0 0 0 0 0 0 0 0 0 0 0 0 0 -0 -0 -0
0 0 0 0 0 0 0 0 0 0 0 0 0 0 0 0 0 0 0 0 0 0 0 0 0 0 0 0 0 0 0 0 0 0 0 0 0 0 0 0 0 0 -0 0 0
0 0 0 0 0 0 0 0 0 0 0 0 0 0 0 0 0 0 0 0 0 0 0 0 0 0 0 0 0 0 0 0 0 0 0 0 0 0 -0 -0 0 0 0 0 0
0 0 0 0 0 0 0 0 0 0 0 0 0 0 0 0 0 0 0 0 0 0 0 0 0 0 0 0 0 0 0 0 0 0 0 0 0 0 0 0 0 0 0 0 0
0 0 0 0 0 0 0 0 0 0 0 0 0 0 0 0 0 0 0 0 0 0 0 0 0 0 0 0 0 0 0 0 0 0 0 0 0 0 0 0 0 0 0 0 0
Wind_Speed_500mb
9 10 11 13 14 14 14 16 18 20 22 24 23 20 17 12 9 12 10 21 24 23 26 23 17 16 7 3 3 7 12 20 28 27 28 30 23 32 33 36 45 30 25 14 6
10 12 12 12 13 15 16 15 16 19 22 21 20 18 15 9 9 10 20 21 18 21 25 27 23 21 3 4 2 11 16 13 20 25 19 31 32 29 35 34 35 39 30 25 13
11 12 12 12 13 13 13 15 17 19 21 22 18 15 12 6 4 7 21 16 14 19 23 21 23 15 6 6 4 7 13 26 22 24 29 36 41 38 43 44 42 31 16 12 15
11 11 13 12 12 13 14 16 18 19 21 19 14 13 9 7 3 10 15 13 15 18 18 19 21 10 7 7 6 13 23 21 33 37 37 35 46 55 59 58 44 31 26 31 29
12 12 13 12 12 13 14 17 18 19 21 14 10 10 5 2 6 12 11 10 13 16 15 19 22 16 11 13 20 24 21 24 29 38 48 46 48 51 68 61 56 51 43 37 38
11 11 11 12 12 13 15 17 18 19 15 8 7 7 5 4 7 12 8 7 10 11 12 13 12 13 8 16 13 22 36 42 41 47 47 43 48 50 49 45 58 64 57 51 40
12 13 12 13 14 15 16 18 18 16 8 7 6 8 3 4 9 11 6 7 7 9 8 8 7 8 17 12 16 34 27 30 17 12 20 22 31 38 55 54 59 55 61 48 36
14 15 13 14 16 16 17 18 17 10 5 6 4 5 1 2 7 10 7 6 12 10 9 7 4 5 3 19 15 11 12 25 15 41 17 9 29 34 28 27 32 36 44 43 31
14 15 14 14 15 16 17 17 12 6 5 4 4 3 4 1 6 10 2 6 11 7 7 5 3 6 6 16 10 5 20 36 26 38 20 11 24 21 26 21 23 23 27 27 26
15 15 15 13 13 14 15 12 7 6 5 5 5 1 2 4 9 7 8 9 5 5 3 4 7 8 8 13 13 22 23 27 38 21 13 26 25 18 14 22 22 23 21 21 16
16 16 14 11 12 11 10 4 6 4 4 2 2 3 3 9 3 6 13 5 5 9 8 3 11 8 18 16 16 21 30 33 32 20 5 23 18 8 17 30 33 28 29 21 16
18 16 12 10 10 8 4 3 2 4 6 2 2 2 3 7 4 4 12 6 8 13 8 9 11 11 14 16 13 18 22 17 19 8 7 21 12 18 20 28 27 29 34 25 19
20 15 10 8 8 5 3 3 3 4 7 1 2 1 2 4 4 3 9 5 9 10 11 12 9 12 14 16 16 15 8 10 10 10 15 11 3 10 17 27 28 38 31 32 32
22 14 11 7 6 3 2 2 4 6 3 5 5 2 1 4 7 4 7 4 7 8 12 12 4 13 17 11 14 14 8 22 16 7 3 4 2 7 10 20 32 43 36 32 36
24 16 13 10 7 5 4 2 5 6 5 8 5 4 4 6 6 4 4 4 10 7 6 7 12 17 15 10 18 14 31 23 8 5 5 16 6 6 9 15 15 28 29 11 39
25 17 15 11 11 9 4 2 5 4 9 8 3 3 6 1 2 7 1 3 5 10 11 22 10 7 10 26 16 23 20 5 12 4 2 18 11 7 13 12 13 17 17 24 55
28 21 19 15 11 11 6 5 4 5 3 6 5 3 5 2 3 6 3 4 6 7 4 8 14 5 5 18 4 26 22 4 7 2 7 17 10 6 19 17 18 23 33 20 38
31 25 21 19 14 13 11 2 4 3 6 3 6 6 6 4 1 1 3 5 2 6 10 6 6 7 13 6 8 15 9 7 9 9 7 14 14 15 20 18 18 15 22 23 19
34 29 24 23 21 18 6 3 6 4 6 13 7 7 2 6 7 4 4 4 2 5 5 6 7 1 1 4 8 9 7 4 7 2 3 5 5 5 14 19 24 24 27 28 30
41 28 22 27 23 20 3 7 4 6 8 6 11 8 9 7 7 6 5 3 3 4 5 4 12 3 5 5 5 7 8 2 4 7 3 7 5 9 11 14 18 22 28 34 36
37 14 17 29 26 11 6 9 7 10 8 7 7 7 8 7 7 6 2 6 6 5 6 7 4 0 7 8 7 2 2 4 4 6 6 1 8 9 12 10 13 19 25 29 31
33 6 29 41 12 4 5 8 5 12 12 9 5 6 10 10 9 8 5 2 6 2 0 5 8 8 4 3 1 2 4 4 5 3 4 6 8 9 13 13 14 16 18 21 23
35 11 38 48 9 8 1 3 5 10 11 11 11 11 6 10 7 9 5 5 2 1 4 2 3 7 4 4 5 1 2 4 7 4 5 4 9 12 17 18 14 13 12 14 18
28 9 12 23 12 7 11 8 9 15 6 9 6 9 10 11 11 1 5 5 5 6 3 1 6 12 9 8 4 5 4 4 6 5 2 7 17 23 21 20 20 17 10 11 14
29 12 21 13 20 15 20 15 15 13 10 16 11 22 19 14 15 10 9 7 8 7 5 4 6 6 17 15 12 12 15 13 12 11 9 6 16 28 27 26 26 19 15 13 11
31 17 20 16 18 38 23 18 24 12 20 11 10 27 23 14 13 9 13 14 10 15 9 6 3 3 7 13 13 11 21 20 19 18 15 8 11 22 32 30 26 25 20 15 13
46 37 28 28 22 26 19 20 34 27 25 12 30 13 26 27 5 7 6 3 3 10 17 6 6 4 6 7 11 12 25 29 16 16 19 16 14 28 26 31 31 23 15 13 11
Wind_Direction_500mb
342 343 339 341 338 334 334 334 334 336 338 342 347 350 352 350 7 34 10 344 356 3 10 358 2 355 3 345 282 257 251 261 275 281 294 276 264 266 262 280 262 252 254 313 185
338 336 334 330 328 330 330 333 333 331 336 342 346 350 3 15 96 44 347 347 3 7 7 3 360 1 352 346 267 258 257 301 2 339 329 316 301 276 279 271 259 246 246 248 216
334 330 328 321 325 328 324 325 329 332 337 341 343 351 3 46 88 5 341 2 18 26 16 359 352 357 357 334 352 302 262 325 313 328 326 308 293 278 270 259 252 265 292 299 249
321 324 323 325 327 329 327 328 327 328 333 335 341 356 17 69 356 322 347 9 17 22 10 8 3 8 337 333 347 288 275 295 300 298 305 292 290 284 270 265 267 274 284 292 274
317 324 328 331 332 331 329 326 323 326 333 334 346 3 40 66 59 346 5 22 27 19 10 14 15 352 346 325 309 259 288 297 291 288 286 286 274 275 269 272 265 262 267 285 282
320 314 319 322 325 325 323 323 323 327 331 336 351 360 27 227 353 357 3 26 24 11 353 9 4 350 307 310 296 326 305 299 295 284 279 279 281 279 273 266 259 256 256 262 281
314 314 310 317 322 323 322 322 324 327 330 339 4 18 20 117 352 354 5 350 360 349 328 329 341 357 337 313 323 299 301 301 280 309 300 304 276 261 270 263 262 266 252 253 271
301 312 308 314 321 323 323 321 322 318 320 328 6 68 76 214 7 8 347 335 331 315 304 287 323 323 278 309 301 296 267 333 326 323 286 280 302 313 351 318 273 271 262 259 284
290 303 304 310 319 324 322 325 318 310 328 339 30 46 131 307 359 339 4 299 306 316 313 297 298 304 309 333 331 138 325 319 322 335 350 314 296 355 352 333 316 327 316 312 282
280 296 303 304 316 325 327 331 333 313 343 40 71 178 104 305 305 330 321 313 251 261 262 240 256 284 230 356 334 312 311 306 314 320 282 280 257 298 2 1 346 349 335 328 333
272 289 292 298 315 334 338 351 37 312 27 124 14 340 328 325 190 337 333 303 265 252 290 197 271 334 336 338 316 293 303 307 314 323 281 252 222 273 29 22 7 358 1 347 16
264 273 279 292 313 333 360 162 141 192 275 246 178 349 302 342 259 346 353 273 244 281 302 222 260 7 324 315 305 311 295 307 308 338 251 55 44 42 40 29 22 11 9 7 30
252 262 258 275 297 320 38 98 80 52 276 84 181 239 293 348 289 316 357 286 278 262 299 282 352 332 316 319 341 328 246 299 279 289 72 7 54 356 11 5 21 25 8 19 52
242 244 226 243 272 256 288 27 54 47 268 136 179 198 245 279 238 284 343 323 233 304 313 279 303 310 318 319 344 317 349 326 326 255 319 15 310 29 336 357 19 16 12 14 52
233 233 213 206 206 206 240 342 36 76 322 130 144 238 243 253 335 181 330 252 282 306 279 48 312 326 311 351 326 280 325 307 308 346 240 7 317 22 336 359 1 15 17 295 60
225 227 207 207 213 207 201 86 38 42 242 147 146 266 238 200 221 316 278 275 285 285 242 277 311 280 308 308 284 290 297 238 239 245 154 360 336 47 4 328 316 326 318 13 55
218 216 203 198 209 190 168 77 27 201 34 186 151 182 287 298 199 346 15 34 324 318 255 258 229 300 295 316 156 342 341 246 228 353 37 357 26 47 336 350 321 306 317 6 59
209 206 202 203 190 173 149 88 218 108 215 116 143 140 258 320 265 327 239 236 86 304 291 322 207 343 14 22 315 321 356 12 326 350 9 23 11 6 352 7 349 330 24 22 53
202 198 203 200 186 170 176 144 232 143 154 161 149 182 201 205 273 241 262 261 254 327 291 309 231 271 153 323 309 354 40 4 297 296 248 53 135 107 22 35 44 36 47 44 45
192 187 210 193 182 164 143 242 200 145 147 204 216 199 194 200 237 216 203 143 183 230 305 32 292 75 341 250 195 328 341 185 206 302 7 90 59 81 39 29 33 35 38 39 45
181 177 205 181 164 187 207 225 206 193 172 201 211 175 223 197 211 235 219 168 217 151 261 312 274 69 256 28 22 71 47 334 283 319 332 150 102 40 86 53 49 44 45 45 52
173 157 177 165 166 234 209 202 199 170 173 225 247 230 226 202 218 227 269 282 163 140 227 38 315 281 341 12 348 348 23 296 291 60 16 327 114 117 103 95 88 72 52 50 52
160 126 170 170 195 203 233 236 227 170 193 187 209 209 196 213 242 220 206 97 151 227 358 112 239 291 219 178 198 328 17 307 279 260 225 260 133 142 133 132 118 99 77 59 47
155 140 161 201 215 191 167 204 205 207 192 185 179 160 176 210 209 163 227 173 184 211 122 297 306 267 307 354 340 274 262 276 287 266 167 249 137 165 164 159 152 141 115 69 56
177 179 176 175 218 199 197 179 164 176 192 205 200 216 189 205 196 210 193 179 207 178 148 245 259 252 283 280 272 272 271 267 253 264 253 71 194 177 175 168 164 151 142 122 85
167 153 167 170 177 181 194 206 190 169 158 199 208 204 205 205 192 193 198 204 204 185 186 180 233 320 268 248 259 272 265 257 249 253 256 254 204 163 168 159 158 162 156 130 105
190 188 164 169 163 173 207 195 197 174 199 182 197 180 205 214 113 57 104 17 214 178 189 184 181 181 257 323 299 258 241 219 216 212 215 200 189 166 167 172 167 168 161 135 100
Wind_Speed_850mb
9 10 11 13 14 14 14 16 18 20 22 24 23 20 17 12 9 12 10 21 24 23 26 23 17 16 7 3 3 7 12 20 28 27 28 30 23 32 33 36 45 30 25 14 6
10 12 12 12 13 15 16 15 16 19 22 21 20 18 15 9 9 10 20 21 18 21 25 27 23 21 3 4 2 11 16 13 20 25 19 31 32 29 35 34 35 39 30 25 13
11 12 12 12 13 13 13 15 17 19 21 22 18 15 12 6 4 7 21 16 14 19 23 21 23 15 6 6 4 7 13 26 22 24 29 36 41 38 43 44 42 31 16 12 15
11 11 13 12 12 13 14 16 18 19 21 19 14 13 9 7 3 10 15 13 15 18 18 19 21 10 7 7 6 13 23 21 33 37 37 35 46 55 59 58 44 31 26 31 29
12 12 13 12 12 13 14 17 18 19 21 14 10 10 5 2 6 12 11 10 13 16 15 19 22 16 11 13 20 24 21 24 29 38 48 46 48 51 68 61 56 51 43 37 38
11 11 11 12 12 13 15 17 18 19 15 8 7 7 5 4 7 12 8 7 10 11 12 13 12 13 8 16 13 22 36 42 41 47 47 43 48 50 49 45 58 64 57 51 40
12 13 12 13 14 15 16 18 18 16 8 7 6 8 3 4 9 11 6 7 7 9 8 8 7 8 17 12 16 34 27 30 17 12 20 22 31 38 55 54 59 55 61 48 36
14 15 13 14 16 16 17 18 17 10 5 6 4 5 1 2 7 10 7 6 12 10 9 7 4 5 3 19 15 11 12 25 15 41 17 9 29 34 28 27 32 36 44 43 31
14 15 14 14 15 16 17 17 12 6 5 4 4 3 4 1 6 10 2 6 11 7 7 5 3 6 6 16 10 5 20 36 26 38 20 11 24 21 26 21 23 23 27 27 26
15 15 15 13 13 14 15 12 7 6 5 5 5 1 2 4 9 7 8 9 5 5 3 4 7 8 8 13 13 22 23 27 38 21 13 26 25 18 14 22 22 23 21 21 16
16 16 14 11 12 11 10 4 6 4 4 2 2 3 3 9 3 6 13 5 5 9 8 3 11 8 18 16 16 21 30 33 32 20 5 23 18 8 17 30 33 28 29 21 16
18 16 12 10 10 8 4 3 2 4 6 2 2 2 3 7 4 4 12 6 8 13 8 9 11 11 14 16 13 18 22 17 19 8 7 21 12 18 20 28 27 29 34 25 19
20 15 10 8 8 5 3 3 3 4 7 1 2 1 2 4 4 3 9 5 9 10 11 12 9 12 14 16 16 15 8 10 10 10 15 11 3 10 17 27 28 38 31 32 32
22 14 11 7 6 3 2 2 4 6 3 5 5 2 1 4 7 4 7 4 7 8 12 12 4 13 17 11 14 14 8 22 16 7 3 4 2 7 10 20 32 43 36 32 36
24 16 13 10 7 5 4 2 5 6 5 8 5 4 4 6 6 4 4 4 10 7 6 7 12 17 15 10 18 14 31 23 8 5 5 16 6 6 9 15 15 28 29 11 39
25 17 15 11 11 9 4 2 5 4 9 8 3 3 6 1 2 7 1 3 5 10 11 22 10 7 10 26 16 23 20 5 12 4 2 18 11 7 13 12 13 17 17 24 55
28 21 19 15 11 11 6 5 4 5 3 6 5 3 5 2 3 6 3 4 6 7 4 8 14 5 5 18 4 26 22 4 7 2 7 17 10 6 19 17 18 23 33 20 38
31 25 21 19 14 13 11 2 4 3 6 3 6 6 6 4 1 1 3 5 2 6 10 6 6 7 13 6 8 15 9 7 9 9 7 14 14 15 20 18 18 15 22 23 19
34 29 24 23 21 18 6 3 6 4 6 13 7 7 2 6 7 4 4 4 2 5 5 6 7 1 1 4 8 9 7 4 7 2 3 5 5 5 14 19 24 24 27 28 30
41 28 22 27 23 20 3 7 4 6 8 6 11 8 9 7 7 6 5 3 3 4 5 4 12 3 5 5 5 7 8 2 4 7 3 7 5 9 11 14 18 22 28 34 36
37 14 17 29 26 11 6 9 7 10 8 7 7 7 8 7 7 6 2 6 6 5 6 7 4 0 7 8 7 2 2 4 4 6 6 1 8 9 12 10 13 19 25 29 31
33 6 29 41 12 4 5 8 5 12 12 9 5 6 10 10 9 8 5 2 6 2 0 5 8 8 4 3 1 2 4 4 5 3 4 6 8 9 13 13 14 16 18 21 23
35 11 38 48 9 8 1 3 5 10 11 11 11 11 6 10 7 9 5 5 2 1 4 2 3 7 4 4 5 1 2 4 7 4 5 4 9 12 17 18 14 13 12 14 18
28 9 12 23 12 7 11 8 9 15 6 9 6 9 10 11 11 1 5 5 5 6 3 1 6 12 9 8 4 5 4 4 6 5 2 7 17 23 21 20 20 17 10 11 14
29 12 21 13 20 15 20 15 15 13 10 16 11 22 19 14 15 10 9 7 8 7 5 4 6 6 17 15 12 12 15 13 12 11 9 6 16 28 27 26 26 19 15 13 11
31 17 20 16 18 38 23 18 24 12 20 11 10 27 23 14 13 9 13 14 10 15 9 6 3 3 7 13 13 11 21 20 19 18 15 8 11 22 32 30 26 25 20 15 13
46 37 28 28 22 26 19 20 34 27 25 12 30 13 26 27 5 7 6 3 3 10 17 6 6 4 6 7 11 12 25 29 16 16 19 16 14 28 26 31 31 23 15 13 11
Wind_Direction_850mb
342 343 339 341 338 334 334 334 334 336 338 342 347 350 352 350 7 34 10 344 356 3 10 358 2 355 3 345 282 257 251 261 275 281 294 276 264 266 262 280 262 252 254 313 185
338 336 334 330 328 330 330 333 333 331 336 342 346 350 3 15 96 44 347 347 3 7 7 3 360 1 352 346 267 258 257 301 2 339 329 316 301 276 279 271 259 246 246 248 216
334 330 328 321 325 328 324 325 329 332 337 341 343 351 3 46 88 5 341 2 18 26 16 359 352 357 357 334 352 302 262 325 313 328 326 308 293 278 270 259 252 265 292 299 249
321 324 323 325 327 329 327 328 327 328 333 335 341 356 17 69 356 322 347 9 17 22 10 8 3 8 337 333 347 288 275 295 300 298 305 292 290 284 270 265 267 274 284 292 274
317 324 328 331 332 331 329 326 323 326 333 334 346 3 40 66 59 346 5 22 27 19 10 14 15 352 346 325 309 259 288 297 291 288 286 286 274 275 269 272 265 262 267 285 282
320 314 319 322 325 325 323 323 323 327 331 336 351 360 27 227 353 357 3 26 24 11 353 9 4 350 307 310 296 326 305 299 295 284 279 279 281 279 273 266 259 256 256 262 281
314 314 310 317 322 323 322 322 324 327 330 339 4 18 20 117 352 354 5 350 360 349 328 329 341 357 337 313 323 299 301 301 280 309 300 304 276 261 270 263 262 266 252 253 271
301 312 308 314 321 323 323 321 322 318 320 328 6 68 76 214 7 8 347 335 331 315 304 287 323 323 278 309 301 296 267 333 326 323 286 280 302 313 351 318 273 271 262 259 284
290 303 304 310 319 324 322 325 318 310 328 339 30 46 131 307 359 339 4 299 306 316 313 297 298 304 309 333 331 138 325 319 322 335 350 314 296 355 352 333 316 327 316 312 282
280 296 303 304 316 325 327 331 333 313 343 40 71 178 104 305 305 330 321 313 251 261 262 240 256 284 230 356 334 312 311 306 314 320 282 280 257 298 2 1 346 349 335 328 333
272 289 292 298 315 334 338 351 37 312 27 124 14 340 328 325 190 337 333 303 265 252 290 197 271 334 336 338 316 293 303 307 314 323 281 252 222 273 29 22 7 358 1 347 16
264 273 279 292 313 333 360 162 141 192 275 246 178 349 302 342 259 346 353 273 244 281 302 222 260 7 324 315 305 311 295 307 308 338 251 55 44 42 40 29 22 11 9 7 30
252 262 258 275 297 320 38 98 80 52 276 84 181 239 293 348 289 316 357 286 278 262 299 282 352 332 316 319 341 328 246 299 279 289 72 7 54 356 11 5 21 25 8 19 52
242 244 226 243 272 256 288 27 54 47 268 136 179 198 245 279 238 284 343 323 233 304 313 279 303 310 318 319 344 317 349 326 326 255 319 15 310 29 336 357 19 16 12 14 52
233 233 213 206 206 206 240 342 36 76 322 130 144 238 243 253 335 181 330 252 282 306 279 48 312 326 311 351 326 280 325 307 308 346 240 7 317 22 336 359 1 15 17 295 60
225 227 207 207 213 207 201 86 38 42 242 147 146 266 238 200 221 316 278 275 285 285 242 277 311 280 308 308 284 290 297 238 239 245 154 360 336 47 4 328 316 326 318 13 55
218 216 203 198 209 190 168 77 27 201 34 186 151 182 287 298 199 346 15 34 324 318 255 258 229 300 295 316 156 342 341 246 228 353 37 357 26 47 336 350 321 306 317 6 59
209 206 202 203 190 173 149 88 218 108 215 116 143 140 258 320 265 327 239 236 86 304 291 322 207 343 14 22 315 321 356 12 326 350 9 23 11 6 352 7 349 330 24 22 53
202 198 203 200 186 170 176 144 232 143 154 161 149 182 201 205 273 241 262 261 254 327 291 309 231 271 153 323 309 354 40 4 297 296 248 53 135 107 22 35 44 36 47 44 45
192 187 210 193 182 164 143 242 200 145 147 204 216 199 194 200 237 216 203 143 183 230 305 32 292 75 341 250 195 328 341 185 206 302 7 90 59 81 39 29 33 35 38 39 45
181 177 205 181 164 187 207 225 206 193 172 201 211 175 223 197 211 235 219 168 217 151 261 312 274 69 256 28 22 71 47 334 283 319 332 150 102 40 86 53 49 44 45 45 52
173 157 177 165 166 234 209 202 199 170 173 225 247 230 226 202 218 227 269 282 163 140 227 38 315 281 341 12 348 348 23 296 291 60 16 327 114 117 103 95 88 72 52 50 52
160 126 170 170 195 203 233 236 227 170 193 187 209 209 196 213 242 220 206 97 151 227 358 112 239 291 219 178 198 328 17 307 279 260 225 260 133 142 133 132 118 99 77 59 47
155 140 161 201 215 191 167 204 205 207 192 185 179 160 176 210 209 163 227 173 184 211 122 297 306 267 307 354 340 274 262 276 287 266 167 249 137 165 164 159 152 141 115 69 56
177 179 176 175 218 199 197 179 164 176 192 205 200 216 189 205 196 210 193 179 207 178 148 245 259 252 283 280 272 272 271 267 253 264 253 71 194 177 175 168 164 151 142 122 85
167 153 167 170 177 181 194 206 190 169 158 199 208 204 205 205 192 193 198 204 204 185 186 180 233 320 268 248 259 272 265 257 249 253 256 254 204 163 168 159 158 162 156 130 105
190 188 164 169 163 173 207 195 197 174 199 182 197 180 205 214 113 57 104 17 214 178 189 184 181 181 257 323 299 258 241 219 216 212 215 200 189 166 167 172 167 168 161 135 100